スペースウォッチ彗星

125P/Spacewatch (1996)

English version
Home page
Updated on July 18, 2024

---------------------------------------------------------------------

・ プロフィール

符号 125P/1996 F1
検出日 1996年3月21日
検出光度 17.6等
検出者 J. V. Scotti (Kitt Peak), J. Montani (Kitt Peak)

・ 軌道要素

   The following improved orbital elements by Kenji Muraoka, are 
  from 158 observations 1991 Sept. 8 to 1996 Sept. 2, perturbations
  by 9 Planets, Moon and 5 minor planets were taken into account. 
   The mean residual is +/- 0.63 arc seconds.

      Epoch  =  1996 July 16.0  TT       JDT = 2450280.5
          T  =  1996 July 14.58862       +/- 0.00112 (m.e.) TT
       Peri. =   87.27094                +/- 0.00019
       Node  =  153.36897                +/- 0.00009   (2000.0)
       Incl. =    9.96899                +/- 0.00002
          q  =    1.5399039              +/- 0.0000015 AU
          e  =    0.5090900              +/- 0.0000003
          a  =    3.1368353              +/- 0.0000012 AU
          n  =    0.17740527             +/- 0.00000010
          P  =    5.556                  +/- 0.0000031  years

・ 星図

・ 1996年 2月27日〜1996年12月23日

・ 光度変化

        m1 = 9.5 + 5 logΔ + 20.0 log r(t - 100)  [   ,-30]  (              〜1996年 6月14日)
        m1 = 7.3 + 5 logΔ + 40   log r(t - 10)   [-30, 40]  (1996年 6月14日〜1996年 8月23日)
        m1 = 9.0 + 5 logΔ + 20.0 log r(t + 100)  [ 40,   ]  (1996年 8月23日〜              )

---------------------------------------------------------------------

軌道要素は村岡健治氏の計算によるものです。
星図は StellaNavigator Ver.2.0 for Windows (アストロアーツ 編著 / アスキー出版局刊) で作成したものです。
光度グラフはComet for Windowsで作成したものです。

---------------------------------------------------------------------

Copyright(C) Seiichi Yoshida (comet@aerith.net). All rights reserved.